FW2530 Weather Reports


Display with metric or nautical units.
time (UTC)temp
F
wind
direction
speed
MPH
gust
MPH
rain 1hr
in
rain 24hr
in
rain mn
in
humidity
%
barometer
mb
20260903024536 70 360 0.0 0.0 0.09 0.19 0.19 73 1012.5
20260903024036 70 360 0.0 1.0 0.09 0.19 0.19 73 1012.8
20260903023536 70 0 0.0 0.0 0.09 0.19 0.19 74 1012.8
20260903023015 70 0 0.0 0.0 0.09 0.19 0.19 74 1012.6
20260903022515 70 360 0.0 0.0 0.09 0.19 0.19 74 1012.7
20260903022015 70 360 2.0 4.0 0.09 0.19 0.19 74 1012.9
20260903021515 70 360 2.0 11.0 0.08 0.18 0.18 74 1012.9
20260903021015 70 360 1.0 4.0 0.05 0.15 0.15 74 1013.6
20260903020515 70 360 1.0 4.0 0.01 0.11 0.11 74 1013.4
20260903020036 70 360 0.0 3.0 0.01 0.11 0.11 74 1013.5
20260903015515 70 360 1.0 1.0 0.01 0.11 0.11 74 1014.0
20260903015015 70 360 1.0 4.0 0.01 0.11 0.11 74 1013.8
20260903014536 70 360 0.0 4.0 0.00 0.10 0.10 74 1013.3
20260903014015 70 360 0.0 1.0 0.00 0.10 0.10 74 1013.1
20260903013515 70 360 1.0 1.0 0.00 0.10 0.10 74 1012.8
20260903013015 70 360 1.0 5.0 0.00 0.10 0.10 75 1012.5
20260903012515 71 360 1.0 3.0 0.01 0.10 0.10 75 1012.8
20260903012015 71 360 1.0 4.0 0.01 0.10 0.10 75 1013.2
20260903011515 71 360 1.0 4.0 0.01 0.10 0.10 75 1013.8
20260903011036 71 360 0.0 1.0 0.01 0.10 0.10 75 1013.3
20260903010536 71 360 0.0 3.0 0.01 0.10 0.10 75 1013.1
20260903010036 71 0 0.0 1.0 0.01 0.10 0.10 75 1012.7
20260903005515 71 360 0.0 0.0 0.01 0.10 0.10 75 1012.7
20260903005036 71 360 1.0 3.0 0.01 0.10 0.10 75 1013.1
20260903004515 71 360 1.0 4.0 0.01 0.10 0.10 75 1013.2
20260903004015 71 360 1.0 3.0 0.01 0.10 0.10 75 1012.8
20260903003515 71 360 0.0 3.0 0.01 0.10 0.10 75 1013.0
20260903003016 71 360 1.0 3.0 0.01 0.10 0.10 75 1013.4
20260903002515 71 360 0.0 4.0 0.00 0.09 0.09 75 1013.3
20260903002015 71 360 1.0 3.0 0.00 0.09 0.09 75 1012.9
20260903001536 71 360 2.0 4.0 0.00 0.09 0.09 75 1012.8
20260903001015 72 360 3.0 5.0 0.00 0.09 0.09 75 1012.7
20260903000536 72 360 3.0 13.0 0.00 0.09 0.09 75 1012.6
20260903000015 72 360 3.0 5.0 0.00 0.09 0.09 75 1012.6
20260902235515 72 360 1.0 5.0 0.00 0.09 0.09 77 1012.5
20260902235015 72 360 0.0 3.0 0.00 0.09 0.09 77 1012.4
20260902234536 72 360 1.0 4.0 0.00 0.09 0.09 77 1012.7
20260902234015 72 360 2.0 4.0 0.00 0.09 0.09 77 1012.7
20260902233536 72 360 2.0 7.0 0.00 0.09 0.09 77 1013.1
20260902233015 72 360 1.0 5.0 0.00 0.09 0.09 77 1013.2
20260902232515 72 0 0.0 0.0 0.00 0.09 0.09 77 1013.3
20260902232036 72 0 0.0 0.0 0.00 0.09 0.09 77 1013.0
20260902231515 72 0 0.0 0.0 0.00 0.09 0.09 77 1012.6
20260902231015 72 0 0.0 0.0 0.00 0.09 0.09 77 1012.6
20260902230537 72 0 0.0 0.0 0.00 0.09 0.09 77 1012.7
20260902230015 72 0 0.0 0.0 0.00 0.09 0.09 77 1012.6
20260902225515 72 0 0.0 0.0 0.01 0.09 0.09 78 1012.4
20260902225036 72 0 0.0 0.0 0.04 0.09 0.09 78 1012.5
20260902224515 72 360 0.0 0.0 0.04 0.09 0.09 78 1012.7
20260902224015 72 360 1.0 4.0 0.04 0.09 0.09 78 1012.7
20260902223515 72 360 1.0 4.0 0.04 0.09 0.09 79 1012.5
20260902223015 72 360 0.0 3.0 0.04 0.09 0.09 79 1012.1
20260902222515 72 360 0.0 0.0 0.04 0.09 0.09 80 1012.0
20260902222016 72 360 0.0 1.0 0.04 0.09 0.09 81 1011.9
20260902221515 72 360 1.0 5.0 0.04 0.09 0.09 81 1012.0
20260902221015 72 360 2.0 4.0 0.04 0.09 0.09 82 1012.3
20260902220515 73 360 2.0 7.0 0.04 0.09 0.09 81 1012.5
20260902220015 74 360 2.0 8.0 0.04 0.09 0.09 79 1012.4
20260902215515 75 360 5.0 7.0 0.03 0.09 0.09 77 1012.4
20260902215015 76 360 7.0 19.0 0.00 0.06 0.06 52 1013.4
20260902214515 79 359 7.0 19.0 0.00 0.06 0.06 70 1013.7
20260902214015 82 356 7.0 20.0 0.00 0.06 0.06 66 1013.7
20260902213515 85 344 4.0 23.0 0.00 0.06 0.06 66 1012.6
20260902213036 87 307 1.0 7.0 0.00 0.06 0.06 74 1012.5
20260902212515 87 248 1.0 5.0 0.00 0.06 0.06 74 1011.3
20260902212036 87 257 2.0 8.0 0.00 0.06 0.06 74 1011.2
20260902211515 87 282 0.0 4.0 0.00 0.06 0.06 74 1011.4
20260902211015 87 0 0.0 0.0 0.00 0.06 0.06 73 1011.6
20260902210515 87 0 0.0 0.0 0.00 0.06 0.06 73 1011.8
20260902210015 86 0 0.0 0.0 0.00 0.06 0.06 71 1011.9
20260902205537 86 0 0.0 0.0 0.00 0.06 0.06 69 1012.0
20260902205015 86 0 0.0 0.0 0.00 0.06 0.06 67 1011.6
20260902204536 86 0 0.0 0.0 0.00 0.06 0.06 66 1011.6
20260902204016 86 0 0.0 0.0 0.00 0.06 0.06 63 1011.7
20260902203515 86 334 0.0 0.0 0.00 0.06 0.06 62 1012.0
20260902203015 86 313 2.0 5.0 0.00 0.06 0.06 63 1012.1
20260902202536 87 311 4.0 13.0 0.00 0.06 0.06 60 1012.3
20260902202015 88 304 5.0 19.0 0.00 0.06 0.06 60 1012.6
20260902201515 90 297 2.0 19.0 0.00 0.06 0.06 61 1013.0
20260902201015 91 269 0.0 1.0 0.00 0.06 0.06 61 1012.4
20260902200515 91 282 1.0 5.0 0.00 0.06 0.06 40 1012.4
20260902200015 91 286 1.0 8.0 0.00 0.06 0.06 62 1012.7
20260902195536 92 291 1.0 4.0 0.00 0.06 0.06 63 1012.4
20260902195015 92 256 3.0 9.0 0.00 0.06 0.06 62 1012.5
20260902194515 92 248 3.0 12.0 0.00 0.06 0.06 62 1012.6
20260902194015 92 294 3.0 11.0 0.00 0.06 0.06 62 1012.7
20260902193516 92 301 3.0 12.0 0.00 0.06 0.06 61 1012.6
20260902193015 91 295 1.0 7.0 0.00 0.06 0.06 62 1012.8
20260902192515 91 293 1.0 7.0 0.00 0.06 0.06 63 1012.7
20260902192015 91 276 2.0 12.0 0.00 0.06 0.06 42 1012.8
20260902191515 90 286 2.0 9.0 0.00 0.06 0.06 67 1012.8
20260902191015 90 292 2.0 7.0 0.00 0.06 0.06 66 1012.8
20260902190515 90 283 2.0 8.0 0.00 0.06 0.06 67 1012.9
20260902190015 90 279 1.0 9.0 0.00 0.06 0.06 66 1012.9
20260902185515 90 284 1.0 5.0 0.00 0.06 0.06 67 1012.9
20260902185015 89 213 3.0 5.0 0.00 0.06 0.06 67 1013.0
20260902184515 89 228 3.0 13.0 0.00 0.06 0.06 67 1013.0
20260902184015 89 290 2.0 8.0 0.00 0.06 0.06 69 1013.1
20260902183536 89 297 1.0 8.0 0.00 0.06 0.06 69 1013.1
20260902183015 89 291 1.0 3.0 0.00 0.06 0.06 70 1013.2
20260902182535 88 277 2.0 12.0 0.00 0.06 0.06 69 1013.2
20260902182015 88 268 1.0 8.0 0.00 0.06 0.06 48 1013.2
20260902181514 88 282 1.0 7.0 0.00 0.06 0.06 70 1013.3
20260902181015 88 269 1.0 8.0 0.00 0.06 0.06 71 1013.3
20260902180514 88 249 2.0 4.0 0.00 0.06 0.06 71 1013.3
20260902180015 88 270 3.0 8.0 0.00 0.06 0.06 71 1013.3
20260902175514 87 284 4.0 12.0 0.00 0.06 0.06 71 1013.5
20260902175015 88 297 3.0 12.0 0.00 0.06 0.06 71 1013.4
20260902174536 88 322 2.0 9.0 0.00 0.06 0.06 72 1013.2
20260902174014 87 259 2.0 7.0 0.00 0.06 0.06 72 1013.1
20260902173514 87 205 2.0 7.0 0.00 0.06 0.06 73 1013.1
20260902173015 87 189 4.0 8.0 0.00 0.06 0.06 73 1013.2
20260902172514 87 193 4.0 11.0 0.00 0.06 0.06 72 1013.4
20260902172035 87 212 3.0 8.0 0.00 0.06 0.06 72 1013.6
20260902171514 87 169 3.0 5.0 0.00 0.06 0.06 73 1013.8
20260902171014 86 168 3.0 12.0 0.00 0.06 0.06 73 1014.0
20260902170514 86 186 3.0 12.0 0.00 0.06 0.06 73 1014.0
20260902170036 86 184 4.0 8.0 0.00 0.06 0.06 73 1014.1
20260902165536 86 186 4.0 11.0 0.00 0.06 0.06 72 1014.2
20260902165015 86 183 4.0 9.0 0.00 0.06 0.06 73 1014.2
20260902164535 86 198 4.0 11.0 0.00 0.06 0.06 51 1014.3
20260902164035 86 233 3.0 11.0 0.00 0.06 0.06 72 1014.4
20260902163514 85 240 1.0 8.0 0.00 0.06 0.06 72 1014.4
20260902163014 85 230 1.0 4.0 0.00 0.06 0.06 72 1014.5
20260902162515 84 223 2.0 5.0 0.00 0.06 0.06 72 1014.6
20260902162015 84 218 2.0 11.0 0.00 0.06 0.06 72 1014.6
20260902161514 84 213 2.0 5.0 0.00 0.06 0.06 72 1014.6
20260902161035 83 195 3.0 7.0 0.00 0.06 0.06 72 1014.5
20260902160514 83 172 4.0 7.0 0.00 0.06 0.06 72 1014.6
20260902160035 82 162 5.0 8.0 0.00 0.06 0.06 72 1014.7
20260902155515 81 165 5.0 12.0 0.00 0.06 0.06 72 1014.6
20260902155015 81 169 4.0 8.0 0.00 0.06 0.06 72 1014.7
20260902154514 81 168 4.0 11.0 0.00 0.06 0.06 71 1014.7
20260902154014 81 171 4.0 9.0 0.00 0.06 0.06 70 1014.7
20260902153514 80 166 5.0 11.0 0.00 0.06 0.06 70 1014.7
20260902153035 80 152 5.0 13.0 0.00 0.06 0.06 70 1014.7
20260902152514 79 31 6.0 12.0 0.00 0.06 0.06 71 1014.7
20260902152014 79 360 4.0 11.0 0.00 0.06 0.06 72 1014.7
20260902151535 78 360 3.0 5.0 0.00 0.06 0.06 72 1014.9
20260902151014 78 360 4.0 8.0 0.00 0.06 0.06 73 1014.9
20260902150514 78 360 3.0 5.0 0.00 0.06 0.06 74 1014.9
20260902150014 77 360 3.0 7.0 0.00 0.06 0.06 74 1014.9
20260902145535 77 360 4.0 8.0 0.00 0.06 0.06 75 1015.0
20260902145014 76 360 5.0 11.0 0.00 0.06 0.06 75 1014.9
20260902144514 76 360 6.0 12.0 0.00 0.06 0.06 75 1014.8
20260902144015 76 360 6.0 15.0 0.00 0.06 0.06 75 1014.9
20260902143515 76 360 5.0 11.0 0.00 0.06 0.06 77 1014.9
20260902143035 76 360 5.0 11.0 0.00 0.06 0.06 77 1014.9
20260902142514 76 360 4.0 11.0 0.00 0.06 0.06 77 1014.8
20260902142035 76 360 4.0 12.0 0.00 0.06 0.06 77 1014.8
20260902141515 76 357 4.0 8.0 0.00 0.06 0.06 77 1014.7
20260902141014 76 147 3.0 11.0 0.00 0.06 0.06 77 1014.8
20260902140514 76 164 3.0 8.0 0.00 0.06 0.06 78 1014.7
20260902140035 75 168 4.0 5.0 0.00 0.06 0.06 77 1014.6
20260902135515 75 170 3.0 8.0 0.00 0.06 0.06 77 1014.6
20260902135015 74 169 2.0 8.0 0.00 0.06 0.06 77 1014.6
20260902134514 74 170 2.0 7.0 0.00 0.06 0.06 77 1014.6
20260902134015 74 181 2.0 7.0 0.00 0.06 0.06 77 1014.7
20260902133514 74 177 3.0 8.0 0.01 0.06 0.06 77 1014.6
20260902133014 74 170 3.0 7.0 0.01 0.06 0.06 77 1014.6
20260902132514 74 177 3.0 7.0 0.01 0.06 0.06 77 1014.5
20260902132015 73 185 2.0 7.0 0.01 0.06 0.06 77 1014.5
20260902131514 73 204 1.0 4.0 0.01 0.06 0.06 77 1014.5
20260902131014 73 211 1.0 4.0 0.01 0.06 0.06 77 1014.3
20260902130535 73 210 1.0 4.0 0.01 0.06 0.06 77 1014.3
20260902130015 73 226 1.0 4.0 0.04 0.06 0.06 77 1014.4
20260902125514 73 244 2.0 4.0 0.04 0.06 0.06 77 1014.5
20260902125036 72 256 1.0 4.0 0.04 0.06 0.06 77 1014.4
20260902124536 72 295 0.0 3.0 0.04 0.06 0.06 77 1014.5
20260902124036 72 275 0.0 0.0 0.04 0.06 0.06 77 1014.7
20260902123514 71 276 0.0 1.0 0.03 0.05 0.05 77 1014.5
20260902123014 71 277 1.0 3.0 0.03 0.05 0.05 77 1014.4
20260902122535 71 277 2.0 5.0 0.03 0.05 0.05 77 1014.1
20260902122014 71 277 1.0 4.0 0.03 0.05 0.05 77 1014.1
20260902121514 71 277 0.0 3.0 0.03 0.05 0.05 77 1014.3
20260902121035 72 0 0.0 0.0 0.03 0.05 0.05 77 1014.2
20260902120514 71 0 0.0 0.0 0.03 0.05 0.05 77 1014.4
20260902120014 71 0 0.0 0.0 0.00 0.02 0.02 77 1014.8
20260902115514 71 0 0.0 0.0 0.00 0.02 0.02 77 1014.7
20260902115014 71 0 0.0 0.0 0.00 0.02 0.02 77 1014.6
20260902114514 71 0 0.0 0.0 0.00 0.02 0.02 75 1014.8
20260902114035 71 0 0.0 0.0 0.00 0.02 0.02 77 1014.7
20260902113535 71 0 0.0 0.0 0.00 0.02 0.02 75 1014.5
20260902113014 71 0 0.0 0.0 0.00 0.02 0.02 75 1014.5
20260902112514 71 0 0.0 0.0 0.00 0.02 0.02 75 1014.3
20260902112014 71 0 0.0 0.0 0.00 0.02 0.02 75 1014.4
20260902111515 71 279 0.0 0.0 0.00 0.02 0.02 75 1014.3
20260902111014 71 279 0.0 3.0 0.00 0.02 0.02 75 1014.2
20260902110514 71 279 0.0 3.0 0.00 0.02 0.02 75 1014.0
20260902110015 71 0 0.0 0.0 0.00 0.02 0.02 75 1014.0
20260902105535 71 0 0.0 0.0 0.00 0.02 0.02 75 1013.9
20260902105014 71 0 0.0 0.0 0.00 0.02 0.02 75 1013.8
20260902104514 71 0 0.0 0.0 0.00 0.02 0.02 75 1013.7
20260902104014 71 0 0.0 0.0 0.00 0.02 0.02 75 1013.6
20260902103514 71 0 0.0 0.0 0.00 0.02 0.02 75 1013.6
20260902103014 71 0 0.0 0.0 0.00 0.02 0.02 75 1013.5
20260902102514 71 278 0.0 0.0 0.00 0.02 0.02 75 1013.6
20260902102014 71 278 0.0 1.0 0.00 0.02 0.02 75 1013.6
20260902101514 71 278 0.0 1.0 0.00 0.02 0.02 75 1013.4
20260902101014 71 0 0.0 1.0 0.00 0.02 0.02 75 1013.5
20260902100535 72 291 0.0 0.0 0.00 0.02 0.02 75 1013.7
20260902100014 72 289 0.0 1.0 0.00 0.02 0.02 75 1013.7
20260902095514 72 289 0.0 3.0 0.00 0.02 0.02 75 1013.6
20260902095014 72 0 0.0 0.0 0.02 0.02 0.02 75 1013.6
20260902094514 72 0 0.0 0.0 0.02 0.02 0.02 75 1013.5
20260902094014 72 0 0.0 0.0 0.02 0.02 0.02 75 1013.5
20260902093514 72 0 0.0 0.0 0.02 0.02 0.02 75 1013.4
20260902093014 72 278 0.0 0.0 0.02 0.02 0.02 75 1013.3
20260902092514 72 278 0.0 3.0 0.02 0.02 0.02 75 1013.2
20260902092014 72 279 1.0 4.0 0.02 0.02 0.02 75 1013.1
20260902091514 73 279 1.0 8.0 0.02 0.02 0.02 75 1013.2
20260902091035 73 281 0.0 3.0 0.02 0.02 0.02 75 1013.2
20260902090514 73 0 0.0 0.0 0.02 0.02 0.02 75 1012.9
20260902090014 73 301 0.0 0.0 0.02 0.02 0.02 75 1013.4
20260902085514 73 294 2.0 7.0 0.02 0.02 0.02 75 1013.6
20260902085014 74 288 1.0 15.0 0.00 0.00 0.00 75 1013.8
20260902084535 74 154 0.0 3.0 0.00 0.00 0.00 75 1014.0
20260902084014 73 146 0.0 3.0 0.00 0.00 0.00 75 1013.7
20260902083514 73 145 0.0 1.0 0.00 0.00 0.00 75 1013.4
20260902083014 73 145 0.0 4.0 0.00 0.00 0.00 75 1013.1
20260902082514 73 145 0.0 3.0 0.00 0.00 0.00 75 1013.4
20260902082014 73 0 0.0 0.0 0.00 0.00 0.00 75 1013.5
20260902081535 73 0 0.0 0.0 0.00 0.00 0.00 74 1013.5
20260902081014 73 0 0.0 0.0 0.00 0.00 0.00 74 1013.7
20260902080514 73 0 0.0 0.0 0.00 0.00 0.00 74 1013.6
20260902080014 72 0 0.0 0.0 0.00 0.00 0.00 74 1013.7
20260902075535 72 0 0.0 0.0 0.00 0.00 0.00 74 1013.7
20260902075014 73 0 0.0 0.0 0.00 0.00 0.00 74 1013.6
20260902074514 73 0 0.0 0.0 0.00 0.00 0.00 74 1013.6
20260902074035 72 0 0.0 0.0 0.00 0.00 0.00 74 1013.7
20260902073535 72 0 0.0 0.0 0.00 0.00 0.00 74 1013.6
20260902073014 72 0 0.0 0.0 0.00 0.00 0.00 73 1013.7
20260902072514 72 0 0.0 0.0 0.00 0.00 0.00 73 1013.8
20260902072014 72 0 0.0 0.0 0.00 0.00 0.00 74 1013.6
20260902071514 72 0 0.0 0.0 0.00 0.00 0.00 73 1013.6
20260902071014 72 0 0.0 0.0 0.00 0.00 0.00 74 1013.7
20260902070514 72 0 0.0 0.0 0.00 0.00 0.00 74 1013.8
20260902070014 72 0 0.0 0.0 0.00 0.00 0.00 74 1013.8
20260902065514 72 0 0.0 0.0 0.00 0.00 0.00 73 1013.8
20260902065014 72 0 0.0 0.0 0.00 0.00 0.00 73 1013.9
20260902064514 72 0 0.0 0.0 0.00 0.00 0.00 73 1014.0
20260902064014 72 0 0.0 0.0 0.00 0.00 0.00 73 1013.9
20260902063514 73 0 0.0 0.0 0.00 0.00 0.00 73 1014.0
20260902063014 73 0 0.0 0.0 0.00 0.00 0.00 73 1014.0
20260902062514 73 0 0.0 0.0 0.00 0.00 0.00 74 1014.0
20260902062014 73 0 0.0 0.0 0.00 0.00 0.00 74 1014.1
20260902061514 73 0 0.0 0.0 0.00 0.00 0.00 74 1014.2
20260902061035 73 0 0.0 0.0 0.00 0.00 0.00 74 1014.2
20260902060514 73 0 0.0 0.0 0.00 0.00 0.00 74 1014.2
20260902060014 73 0 0.0 0.0 0.00 0.00 0.00 74 1014.4
20260902055514 73 0 0.0 0.0 0.00 0.00 0.00 74 1014.3
20260902055014 73 0 0.0 0.0 0.00 0.00 0.00 74 1014.3
20260902054535 73 0 0.0 0.0 0.00 0.00 0.00 74 1014.2
20260902054014 73 0 0.0 0.0 0.00 0.00 0.00 74 1014.1
20260902053514 73 0 0.0 0.0 0.00 0.00 0.00 74 1014.2
20260902053014 73 0 0.0 0.0 0.00 0.00 0.00 74 1014.3
20260902052514 74 0 0.0 0.0 0.00 0.00 0.00 74 1014.5
20260902052014 74 0 0.0 0.0 0.00 0.00 0.00 74 1014.4
20260902051514 74 0 0.0 0.0 0.00 0.00 0.00 74 1014.4
20260902051015 74 0 0.0 0.0 0.00 0.00 0.00 74 1014.3
20260902050514 74 0 0.0 0.0 0.00 0.00 0.00 74 1014.3
20260902050014 74 0 0.0 0.0 0.00 0.00 0.00 74 1014.2
20260902045514 74 0 0.0 0.0 0.00 0.00 0.00 75 1014.0
20260902045014 74 0 0.0 0.0 0.00 0.00 0.00 75 1014.1
20260902044514 74 0 0.0 0.0 0.00 0.00 0.00 75 1014.1
20260902044014 74 0 0.0 0.0 0.00 0.00 0.00 75 1014.0
20260902043514 74 0 0.0 0.0 0.00 0.00 0.00 75 1014.2
20260902043014 74 0 0.0 0.0 0.00 0.00 0.00 75 1014.2
20260902042514 75 0 0.0 0.0 0.00 0.00 0.00 75 1014.2
20260902042035 75 0 0.0 0.0 0.00 0.00 0.00 75 1014.2
20260902041514 75 0 0.0 0.0 0.00 0.00 0.00 75 1014.1
20260902041014 75 0 0.0 0.0 0.00 0.00 0.00 75 1014.0
20260902040514 75 0 0.0 0.0 0.00 0.00 0.00 75 1013.9
20260902040014 75 0 0.0 0.0 0.00 0.00 0.00 75 1014.0
20260902035514 75 0 0.0 0.0 0.00 0.00 0.00 75 1013.9
20260902035014 75 0 0.0 0.0 0.00 0.00 0.00 75 1014.0
20260902034535 75 0 0.0 0.0 0.00 0.00 0.00 75 1014.0
20260902034035 75 0 0.0 0.0 0.00 0.00 0.00 77 1014.1
20260902033535 76 0 0.0 0.0 0.00 0.00 0.00 77 1014.0
20260902033014 76 0 0.0 0.0 0.00 0.00 0.00 77 1014.0
20260902032514 76 0 0.0 0.0 0.00 0.00 0.00 77 1013.9
20260902032014 76 0 0.0 0.0 0.00 0.00 0.00 77 1014.0
20260902031535 76 0 0.0 0.0 0.00 0.00 0.00 77 1013.9
20260902031014 76 360 0.0 0.0 0.00 0.00 0.00 77 1013.9
20260902030514 76 360 0.0 1.0 0.00 0.00 0.00 78 1013.9
20260902030014 76 360 0.0 0.0 0.00 0.00 0.00 78 1013.9
20260902025514 76 360 0.0 1.0 0.00 0.00 0.00 78 1013.9
20260902025014 76 360 0.0 0.0 0.00 0.00 0.00 78 1014.0